Het weer op Woensdrecht:2015/07/28 17:25 EHWO 281725Z AUTO 23014KT 9999 SCT036 BKN077 BKN084 18/09 Q1006 BLU
Het weer op Amsterdam:2015/07/28 17:25 EHAM 281725Z 24019KT 210V270 9999 VCSH FEW025CB SCT030 17/11 Q1004 TEMPO 25020G32KT 5000 SHRA

Menu promotie
· De club
· Motor(zweefvliegen) bij de ACV
· De vloot
· Kennismaken met de ACV


Buien Radar


Inloggen voor leden
WelkomAnonymous!


Lid nummer    
Wachtwoord 
Code: Code
Type Code in
[Wachtwoord vergeten?]


Picasa foto link
ACV externe fotolink


 
Sorry, deze module is niet actief (acv_addon_4)

[ Ga terug ]
copyright (c) ACV 2006 - 2015

All logos and trademarks in this site are property of their respective owner. The comments are property of their posters, all the rest 2005 by me.
PHP-Nuke Copyright © 2005 by Francisco Burzi. This is free software, and you may redistribute it under the GPL. PHP-Nuke comes with absolutely no warranty, for details, see the license.
Pagina Rendering: 0.27 Seconden